Вернуться в каталог

STARLINK-32836

АктивенСвязьVLEO
NORAD 62965·PAYLOAD·🇺🇸 United States

Запущен Feb 11, 2025 с Vandenberg Space Force Base

Loading…

Ближайшие Пролёты (ближайшие 24 часа)

TLE

СвежийSource: CelesTrak SupGP

Эпоха: Sep 15, 2026, 02:12 UTC

1 62965C 25029T   26258.09215278 -.00025964  00000+0 -76715-3 0  2587
2 62965  53.1571  67.2721 0001132  86.4898 232.1156 15.34401566    13

Отслеживайте STARLINK-32836 в реальном времени с AllMySat

Download on the App Store